FENGYUN 1C DEB

Satellite information

Favourite Embed

Satellite Type and Status

DEBRISIN ORBIT

Key statistics

Satellite FENGYUN 1C DEB at a glance.

Uptime

9616

Days in orbit

Revolutions

≈ 14.0

Per day

Orbit

SSO

Sun Synchronous Orbit

Inclination

98.3

Latest

Satellite identification and parameters

Extended collection of information and parameters for FENGYUN 1C DEB.

Object identification

Identified? True

Debris? True

Object name: FENGYUN 1C DEB

International designator: 1999-025CWR

Object number (NORAD): 32243

Object ID (CCSDS): 32243

Country: PEOPLES REPUBLIC OF CHINA (PRC)

Current information (Y/N): Y

RCS size: SMALL

Orbital parameters

Period: 102.601 minutes

Inclination: 98.2795 deg

SMA: 7259.831 km

Apoapsis: 1078.851 km

Periapsis: 684.541 km

RAAN: 281.3072 deg

Eccentricy: 0.02715694

Argument of periapsis: 44.6964 deg

Mean anomaly: 317.5747 deg

Mean motion: 14.03501932 rev/day

Mean motion (dot): 0.00005991 rev/day2

B* drag term: 0.0027725188 1/REarth

Two-line elements (TLE)

Creation date: Sept. 5, 2025, 10:27 a.m.

Reference frame: TEME

Reference center: EARTH

Epoch: Sept. 5, 2025, 12:53 a.m. UTC

TLE line 0: 0 FENGYUN 1C DEB

TLE line 1: 1 32243U 99025CWR 25248.03724832 .00005991 00000-0 27725-2 0 9998

TLE line 2: 2 32243 98.2795 281.3072 0271569 44.6964 317.5747 14.03501932922030

Live tracking on map

Real-time ground track for satellite FENGYUN 1C DEB.

In-orbit conjunctions

A list of the most updated potential collisions computed for object FENGYUN 1C DEB.

Target Orbit TCA Probability of collision Miss distance Type
OV3-3 LEO 2025-02-18 18:48:12 0.000182843 698.0 (m) PAYLOAD

Associated space launch

Chinese polar orbiting meteorological satellite

FENGYUN 1C DEB was lifted into orbit during the mission ‘Long March 4B | Feng Yun 1C’, on board a Long March 4B space rocket.

The launch took place on May 10, 1999, 1:33 a.m. from Launch Complex 7.

For more information about the launch, click the button.

Launch to space Long March 4B | Feng Yun 1C
Long March 4B | Feng Yun 1C

Agency: N/A

Status: Launch Successful

Launch date: May 10, 1999, 1:33 a.m. UTC

Rocket: Long March 4B

Launch pad: Launch Complex 7

Location: Taiyuan Satellite Launch Center, People's Republic of China

...

Latest news about this satellite

There are no fresh news available about this satellite. Check back as we update our databases every day.


Newsletter sign-up

Weekly statistics, charts and insights to help you stay on top of the space industry.